Probability
0 0 0 0 0 0 0 0 0 0 0 0 1 2 3 3 4 4 5 6 9 14 17 20 24 25 22 17 14 13 12 10 6 2 3 5 4 4 4 4 4 2 1 0 0 1 2 2 1
0 0 0 0 0 0 0 0 0 0 0 1 2 3 3 3 4 5 5 6 9 14 17 19 22 23 22 19 16 13 11 9 6 3 3 5 5 4 4 4 3 2 1 0 0 0 1 1 0
0 0 0 0 0 0 0 0 0 0 0 1 3 3 3 4 5 5 6 8 11 14 17 19 20 22 22 21 18 14 11 8 6 5 5 6 5 4 3 4 3 1 0 0 0 0 0 0 0
0 0 0 0 0 0 0 0 0 0 1 2 3 3 4 5 6 7 9 11 13 15 18 20 20 21 22 22 20 16 12 9 8 8 8 7 6 5 4 3 2 1 0 0 0 0 0 0 0
0 0 0 0 0 0 0 0 0 0 1 3 3 3 3 4 8 11 12 12 13 14 17 20 21 21 22 22 21 18 15 12 12 12 10 7 6 6 5 3 1 0 0 0 0 0 0 0 0
0 0 0 0 0 0 0 0 0 0 2 3 3 1 1 3 7 11 12 11 12 12 13 17 20 22 23 23 22 21 18 15 14 14 11 8 7 6 5 2 0 0 0 0 1 0 0 0 0
0 0 0 0 0 0 0 0 0 0 1 2 2 1 0 2 5 9 10 10 11 10 9 11 16 20 23 23 22 22 20 17 15 13 10 8 6 5 4 2 1 1 1 1 1 0 1 1 1
0 0 0 0 0 0 0 0 0 0 1 1 1 1 1 3 6 9 10 10 9 9 9 9 12 16 18 19 18 18 17 16 14 11 9 7 6 4 4 4 3 3 3 2 1 1 2 3 2
0 0 0 0 0 0 0 0 0 1 2 3 3 4 7 11 12 12 12 10 8 9 9 9 9 11 13 13 13 13 13 14 12 9 8 8 7 5 6 5 4 4 4 3 2 3 4 4 3
0 0 0 0 0 0 0 0 0 1 2 4 7 10 15 18 17 14 13 11 9 8 9 8 6 7 8 9 10 10 11 11 9 8 7 8 8 7 6 6 5 4 4 3 2 3 3 3 2
0 0 0 0 0 0 0 0 0 1 2 4 9 16 20 21 19 16 13 11 9 8 8 7 6 5 6 8 9 10 9 8 6 6 6 7 7 6 6 6 6 5 4 2 2 2 1 1 1
0 0 0 0 0 0 0 0 1 2 3 7 13 19 22 20 18 16 14 10 8 7 7 8 8 7 6 6 7 8 8 5 4 4 5 6 5 5 4 4 5 5 4 2 1 1 0 0 0
0 0 0 0 0 0 0 1 2 4 6 9 15 19 21 19 17 16 13 8 6 7 7 9 10 10 8 6 7 8 7 6 5 5 4 4 4 4 3 3 4 4 3 2 1 0 0 0 0
0 0 0 0 0 0 0 2 3 5 6 9 12 15 16 16 14 14 11 7 6 7 8 12 15 14 11 8 7 8 7 6 7 7 5 4 3 3 3 3 3 3 3 2 1 0 0 0 0
0 0 0 0 0 0 0 1 2 4 6 7 8 9 10 11 11 11 10 8 6 6 10 15 19 19 15 11 9 8 6 6 7 8 7 6 5 4 4 3 3 3 3 3 2 1 1 0 1
0 0 0 0 0 0 0 0 1 2 4 5 5 4 5 7 9 11 10 8 7 8 11 16 20 21 19 15 12 9 8 7 8 8 9 9 8 7 5 4 4 5 5 6 5 3 2 2 3
0 0 0 0 0 0 0 0 0 1 1 2 2 3 4 5 6 8 8 8 9 10 11 15 18 21 21 18 14 12 10 9 9 9 10 11 11 10 8 7 6 7 8 8 7 6 5 5 5
0 0 0 0 0 0 0 0 0 0 0 1 1 2 3 3 4 5 6 9 11 12 11 13 17 20 20 18 16 14 12 10 9 10 12 13 14 14 12 9 8 9 10 10 9 8 7 7 7
0 0 0 0 0 0 0 0 0 0 1 1 1 1 1 2 3 5 7 10 12 12 11 13 16 17 17 17 16 14 12 10 9 10 12 13 14 15 14 11 10 11 11 11 10 8 7 7 7
0 0 0 0 0 0 0 0 0 0 1 2 3 2 2 3 5 7 9 11 12 12 11 13 15 16 16 17 16 13 11 10 9 10 11 11 12 13 13 13 12 12 12 12 10 8 7 7 7
0 0 0 0 0 0 0 0 0 0 1 2 2 2 3 4 8 11 12 12 13 13 13 14 16 16 17 18 17 15 13 11 10 9 9 9 9 11 12 12 12 12 12 11 10 8 7 7 7
0 0 0 0 0 0 0 0 0 0 0 1 1 1 3 5 9 12 13 13 13 14 15 17 17 16 18 20 20 19 16 14 12 10 9 9 10 12 13 13 11 11 11 10 9 7 7 7 7
0 0 0 0 0 0 0 0 0 0 0 0 0 1 2 4 7 9 11 11 11 13 16 18 19 17 18 20 21 20 18 15 13 11 11 11 12 14 16 15 13 11 10 9 8 7 6 6 6
0 0 0 0 0 0 0 0 0 0 0 0 0 0 1 2 3 5 7 7 9 12 16 18 19 17 17 18 18 17 15 13 11 11 12 13 14 15 17 17 16 13 12 10 8 7 6 6 6
0 0 0 0 0 0 0 0 0 0 0 0 0 0 0 0 0 2 4 4 6 11 16 20 20 18 16 15 14 12 11 9 9 10 12 13 14 15 16 16 16 14 12 10 8 7 6 6 6
0 0 0 0 0 0 0 0 0 0 0 0 0 0 0 0 0 1 3 4 6 10 16 20 20 19 17 16 14 12 9 7 7 8 10 11 12 14 15 14 13 12 11 9 8 7 6 6 5
0 0 0 0 0 0 0 0 0 0 0 0 0 0 0 1 1 2 4 7 7 9 13 17 19 19 18 17 16 12 9 6 6 6 8 10 10 11 13 13 11 10 9 8 7 7 7 6 6
0 0 0 0 0 0 0 0 0 0 0 0 0 0 0 1 2 2 4 8 9 9 11 14 16 18 18 18 16 13 9 8 7 6 7 7 7 8 10 11 10 9 8 7 7 7 7 6 6
0 0 0 0 0 0 0 0 0 0 0 0 0 0 0 1 1 1 2 5 8 9 10 12 14 15 17 17 15 12 11 9 7 6 6 5 4 4 5 7 7 7 7 7 7 7 7 6 6
0 0 0 0 0 0 0 0 0 0 0 0 0 0 0 0 0 0 0 2 6 9 10 11 12 14 16 16 14 12 11 9 6 5 5 4 2 1 2 3 5 6 6 7 8 8 7 6 6
Wind_Speed
4 4 2 2 5 5 2 3 2 3 2 2 0 2 4 3 3 2 1 9 11 11 9 11 13 13 13 13 13 12 12 12 12 11 12 11 11 11 11 10 10 10 10 10 10 11 10 10 10
3 3 2 4 5 3 4 4 2 2 2 0 1 2 2 1 1 4 4 7 12 11 9 10 13 13 13 13 13 12 12 12 12 11 11 11 11 10 10 10 9 9 9 9 9 9 9 9 9
2 2 3 5 3 3 4 3 3 3 1 0 1 2 1 2 3 5 5 11 10 10 8 10 15 13 13 13 13 12 12 12 12 11 11 11 11 10 9 9 9 9 8 8 8 8 8 8 9
2 3 5 5 1 5 5 5 3 3 2 1 2 1 1 1 3 5 10 12 11 9 7 9 15 14 13 13 12 12 12 12 11 11 10 10 10 9 9 9 8 8 8 8 8 8 8 8 8
3 4 5 2 4 5 5 6 4 3 1 0 2 1 1 3 5 10 12 12 11 9 7 8 14 14 13 13 12 12 12 11 10 10 10 9 9 8 8 8 8 7 7 7 7 7 7 7 7
4 5 4 2 5 5 5 4 1 1 1 1 3 2 0 2 6 9 11 9 9 9 7 7 14 14 14 13 12 12 11 11 10 9 9 8 8 7 7 6 6 6 6 6 6 6 6 6 6
4 4 2 2 4 5 4 1 1 1 1 3 4 3 1 2 5 8 9 8 7 7 6 5 7 9 13 13 12 12 11 11 10 9 8 8 7 6 6 5 5 5 5 5 5 5 5 5 5
4 4 1 2 3 5 4 2 1 1 2 2 5 6 5 5 8 9 8 7 6 6 5 5 4 5 5 7 12 12 11 11 10 9 8 8 7 6 5 4 4 4 4 5 4 4 4 4 5
4 4 2 4 4 5 3 2 2 1 1 0 1 3 4 13 12 10 7 5 6 7 5 5 5 4 4 4 8 9 10 10 9 7 8 6 3 2 2 3 4 4 4 4 4 3 3 4 4
4 3 7 5 4 4 4 2 2 1 1 1 1 3 10 13 12 12 10 10 10 9 8 6 6 5 5 5 4 3 4 4 4 3 4 3 2 2 2 2 3 3 3 3 3 3 3 2 1
4 6 5 5 5 4 4 4 2 3 4 6 5 7 11 11 10 11 10 10 10 9 8 7 6 6 5 3 3 2 2 2 3 3 4 3 2 1 1 1 1 1 2 1 1 2 1 1 1
3 6 5 5 3 3 4 3 2 4 7 4 6 11 12 12 12 12 12 10 8 8 8 7 7 6 6 4 3 3 3 2 2 3 4 3 2 2 1 1 1 1 1 1 1 1 1 1 1
4 5 4 6 5 4 3 4 3 5 5 2 7 10 12 12 10 8 7 7 7 7 8 7 7 7 6 5 4 4 4 4 3 3 3 4 3 2 2 1 1 1 1 1 1 1 1 1 0
4 4 6 6 4 2 2 3 1 5 1 3 7 8 9 10 9 7 6 7 8 8 8 7 7 7 7 5 4 4 4 4 4 4 4 5 4 3 3 2 1 1 1 1 1 1 1 0 0
2 4 7 4 2 2 1 4 3 3 2 3 4 5 6 7 8 9 9 9 9 9 8 7 8 7 7 6 5 4 4 4 4 4 4 5 4 4 3 2 2 1 1 1 1 1 0 0 1
2 2 4 6 2 1 3 5 7 1 3 2 3 4 4 5 7 8 8 7 7 7 8 8 8 8 7 6 5 3 4 4 3 3 3 5 5 5 3 2 2 2 2 2 1 1 1 1 1
3 1 3 6 3 1 2 5 6 2 2 3 3 4 4 4 4 5 6 7 7 7 8 7 7 8 7 6 4 4 3 4 3 3 3 4 5 5 4 3 2 2 2 2 2 1 1 1 1
4 2 3 4 3 3 1 5 6 2 2 2 3 3 4 5 5 4 5 5 6 6 6 7 6 6 5 4 3 2 3 3 3 3 4 4 4 5 4 3 3 3 2 2 2 2 1 1 1
3 2 5 6 3 1 3 5 6 3 0 1 1 2 3 4 3 3 3 4 5 5 6 7 7 6 5 4 4 4 3 3 3 3 4 5 4 5 5 4 3 3 3 3 3 2 2 1 1
4 3 4 6 2 1 2 4 4 1 2 2 2 2 3 1 1 2 3 4 5 5 6 6 7 7 6 5 4 3 3 2 2 2 3 4 5 5 5 4 4 4 3 3 3 3 2 1 1
4 5 5 5 4 2 1 5 4 3 1 1 1 1 1 2 3 3 4 4 4 5 6 6 6 6 6 5 3 2 2 1 1 2 2 3 4 5 4 5 4 4 4 4 4 4 4 3 1
5 6 6 4 1 3 0 3 5 3 3 2 2 1 1 1 2 2 2 3 4 5 5 5 5 6 5 5 5 6 4 4 4 3 3 2 3 4 4 4 4 4 3 4 4 4 3 3 2
6 3 3 3 3 1 1 1 7 3 3 4 3 2 2 2 2 2 2 3 3 3 4 4 5 4 4 5 6 6 4 3 2 2 3 3 3 3 4 4 4 4 3 4 3 3 3 3 3
3 4 4 5 4 1 3 3 6 3 4 3 2 1 1 0 1 1 1 1 1 2 3 3 3 3 4 4 5 5 5 4 4 3 3 3 2 3 4 4 4 4 4 4 4 4 4 4 3
4 6 4 4 3 5 2 3 7 5 3 3 2 2 1 1 1 1 1 2 2 3 4 4 4 3 4 4 4 5 5 5 5 4 4 3 2 3 4 4 4 4 4 4 3 3 4 4 4
3 8 7 5 5 5 1 4 6 2 1 1 0 0 1 1 1 1 1 2 3 3 3 4 4 4 4 4 4 4 4 4 3 4 4 4 3 3 3 3 3 3 4 4 3 3 3 3 4
5 3 5 6 2 1 4 4 5 1 3 3 2 3 2 2 2 1 0 1 2 2 3 3 4 3 4 4 4 3 4 4 4 3 3 2 2 2 3 3 3 3 3 3 3 3 3 3 3
5 7 5 5 4 3 4 4 4 2 2 2 2 2 2 2 3 2 1 1 2 2 2 3 2 3 3 3 4 3 3 3 3 3 3 3 3 2 3 3 3 3 3 3 3 2 3 3 3
3 3 4 4 4 5 3 6 3 4 3 2 1 1 2 2 2 2 1 0 1 2 2 2 2 2 2 2 2 2 2 2 2 2 3 3 2 2 3 3 3 3 3 3 3 3 3 3 3
4 5 6 5 3 4 3 7 2 2 2 1 1 1 2 1 1 2 2 1 1 1 1 2 2 2 2 2 2 2 2 2 2 3 3 3 3 3 3 3 3 3 3 3 3 3 3 3 4
Wind_Direction
146 129 123 84 54 47 330 274 254 310 310 313 69 138 147 163 179 211 137 141 135 141 150 156 155 151 147 142 138 135 134 130 128 126 125 123 121 121 121 120 119 118 116 118 121 122 124 125 125
135 143 88 61 74 42 294 269 271 261 240 328 53 82 95 115 96 121 135 146 140 142 146 154 156 153 149 146 142 140 138 134 131 128 126 127 124 123 123 123 122 121 119 118 121 122 126 130 131
159 141 83 71 93 179 255 268 266 291 273 138 64 53 126 179 150 158 158 143 135 140 146 158 158 156 153 150 147 144 142 139 136 133 130 130 127 124 125 125 124 123 121 120 120 121 124 128 132
110 53 53 68 226 229 229 256 264 293 321 73 116 72 33 42 152 145 137 141 138 142 148 160 159 158 156 153 151 149 146 143 141 139 135 133 130 127 128 127 125 124 123 122 122 123 123 125 128
65 74 55 15 274 259 246 254 232 224 254 116 125 128 342 24 96 122 137 144 145 147 152 161 159 160 158 156 154 152 149 146 144 142 138 136 132 130 130 129 128 126 125 126 124 124 121 121 126
57 66 73 299 286 283 270 257 239 238 191 142 139 138 254 97 119 136 141 142 146 150 153 159 164 162 161 159 156 153 151 149 147 145 143 139 136 133 130 131 130 129 124 121 120 123 125 125 126
106 100 164 241 281 296 284 279 199 237 228 199 153 140 208 137 137 132 130 128 136 146 151 157 164 164 163 161 158 155 154 152 151 151 148 145 141 137 136 136 134 135 134 129 126 125 130 131 130
129 108 163 250 255 274 284 323 236 224 237 178 149 165 203 176 135 120 114 117 131 144 156 158 156 155 159 162 162 159 157 156 155 156 153 148 143 140 143 138 141 144 142 137 131 127 124 128 134
97 85 226 230 224 260 292 329 317 291 154 188 196 187 170 134 130 124 124 127 148 161 168 167 162 157 153 159 168 163 162 161 158 158 157 145 125 121 133 142 146 145 143 139 131 128 122 119 131
106 162 228 222 211 249 291 289 277 334 322 270 49 75 122 136 146 152 161 167 174 179 181 179 174 168 163 172 161 154 156 154 148 141 140 125 115 120 129 139 147 145 140 140 128 117 109 104 103
165 204 238 251 239 249 277 280 223 175 251 229 195 155 145 150 160 168 176 178 181 180 181 182 181 173 172 170 158 150 140 140 142 145 139 129 122 115 99 98 107 109 113 85 81 74 70 90 112
200 242 236 257 250 248 249 263 252 206 237 227 170 155 155 162 175 181 183 181 175 174 186 181 179 176 180 172 164 157 154 155 159 160 150 144 147 148 137 127 114 98 94 94 79 83 79 83 121
225 261 258 253 269 247 238 248 246 262 265 148 141 149 162 173 182 184 176 168 168 178 184 179 176 178 178 173 174 172 171 171 169 167 168 164 165 169 153 140 130 133 120 125 125 120 111 107 138
240 261 284 284 273 250 212 280 280 275 320 119 147 164 170 177 179 172 171 175 180 185 185 178 177 178 175 177 180 181 180 174 172 178 183 177 172 171 161 158 166 177 159 153 144 152 153 183 199
286 301 312 297 274 264 106 326 275 265 118 142 172 176 175 182 177 180 186 186 187 185 181 179 181 176 178 181 185 183 182 177 183 187 185 185 181 173 171 173 182 191 165 151 127 117 136 194 215
5 14 314 300 316 296 117 275 288 334 123 164 181 177 176 189 187 192 186 186 182 176 177 184 185 179 182 183 183 178 179 183 188 185 185 190 189 179 171 179 194 182 157 155 153 165 187 233 227
20 321 275 302 326 41 107 259 292 332 139 179 194 191 185 194 201 200 190 182 179 180 177 181 182 180 182 180 175 171 172 187 189 184 190 196 193 184 177 188 193 173 161 172 186 170 179 207 233
241 242 265 273 304 27 329 268 300 308 157 192 199 196 189 199 212 200 187 178 176 177 173 178 182 180 170 161 152 150 160 177 180 187 197 194 194 188 181 187 184 174 169 178 178 173 168 181 203
202 220 263 267 268 348 266 282 300 302 72 231 217 206 204 214 208 172 170 163 165 167 171 179 179 175 164 167 171 172 186 186 189 199 194 192 196 191 184 193 183 181 184 190 184 174 162 162 134
207 241 264 290 312 178 263 289 297 294 215 209 202 205 208 191 140 170 162 162 174 177 181 182 180 176 177 180 177 174 166 178 186 201 198 187 191 193 193 190 190 186 180 182 181 170 163 173 152
220 209 228 247 333 4 342 317 311 300 315 334 241 211 199 178 189 186 174 174 171 179 186 186 179 175 177 167 143 121 103 98 162 196 206 195 190 191 192 192 190 188 185 190 193 186 178 185 185
249 231 209 211 151 285 136 277 289 289 319 312 293 264 235 209 179 170 161 180 189 193 178 169 166 167 167 162 168 170 178 188 199 194 191 188 191 195 191 187 185 185 189 191 195 188 180 171 186
222 225 186 182 166 271 340 202 284 312 292 286 289 271 243 213 170 162 170 204 202 186 171 165 156 156 160 167 173 178 184 183 159 158 174 183 186 196 195 185 181 183 190 196 192 181 181 180 184
180 67 54 55 83 259 235 179 274 258 242 268 297 301 326 128 112 125 130 158 154 147 145 140 153 162 166 162 166 174 174 161 154 166 181 188 187 196 200 190 186 188 189 196 198 190 189 192 188
93 87 33 5 11 249 236 182 246 248 234 227 255 300 351 47 108 104 110 171 163 154 160 162 177 184 182 172 173 178 177 175 176 177 191 195 194 201 206 192 190 192 195 194 186 184 195 196 193
172 142 158 193 218 265 289 227 248 261 313 334 357 21 47 34 46 95 184 190 177 176 174 175 183 190 186 186 189 184 176 178 183 179 185 197 205 202 190 182 188 192 189 187 180 183 201 201 206
143 172 164 138 158 249 268 275 292 355 5 12 38 41 27 18 19 33 103 160 169 175 181 185 188 188 190 192 185 181 182 181 179 172 169 181 192 184 178 175 177 184 183 182 180 191 205 195 209
132 141 105 126 158 234 268 254 248 260 298 338 12 5 349 2 6 17 39 140 169 181 178 166 172 186 186 186 185 184 185 186 178 165 174 181 182 174 172 175 182 189 192 187 183 194 202 196 212
96 98 111 127 159 167 234 261 234 201 204 212 254 298 310 336 339 334 345 157 146 122 136 152 160 157 163 182 187 175 176 178 168 168 181 180 171 169 177 185 189 196 202 198 192 205 201 209 223
141 154 144 151 213 181 188 261 295 177 181 169 220 287 332 326 319 339 360 38 95 117 126 156 161 163 183 178 170 177 168 172 182 192 190 178 174 179 187 189 192 199 199 195 196 214 212 214 228